When you browse on this site, cookies collect data to enhance your experience and personalize the content and advertising you see.
Visit our Privacy Policy to learn more. By continuing to use the site, you agree to this use of cookies and data.
  • In United Kingdom
  • List of Countries
  • For 7 days
  • Water Temperature
  • Weather Map
  • Weather Widgets
  • user-avatar
    Login

    Hourly Weather Szigethalom

    Today, 13 December, Friday

    Time Temperature Precipitation Wind Pressure Humidity
    00:00 +4°C° 0.4 mm 1 mps 742 mmHg 97%
    01:00 +3°C° 0.4 mm 2 mps 742 mmHg 97%
    02:00 +3°C° 0.5 mm 2 mps 741 mmHg 96%
    03:00 +3°C° 0.5 mm 2 mps 740 mmHg 96%
    04:00 +3°C° 0.5 mm 2 mps 740 mmHg 95%
    05:00 +2°C° 0 mm 3 mps 739 mmHg 95%
    06:00 +2°C° 0 mm 3 mps 739 mmHg 95%
    07:00 +1°C° 0 mm 3 mps 738 mmHg 95%
    08:00 0°C° 0 mm 4 mps 738 mmHg 94%
    09:00 +1°C° 0 mm 4 mps 737 mmHg 93%
    10:00 +1°C° 0 mm 5 mps 737 mmHg 92%
    11:00 +1°C° 0 mm 5 mps 736 mmHg 88%
    12:00 +2°C° 0 mm 5 mps 736 mmHg 84%
    13:00 +3°C° 0 mm 5 mps 735 mmHg 80%
    14:00 +3°C° 0 mm 5 mps 735 mmHg 79%
    15:00 +4°C° 0 mm 4 mps 734 mmHg 78%
    16:00 +4°C° 0 mm 4 mps 734 mmHg 77%
    17:00 +4°C° 0 mm 3 mps 734 mmHg 79%
    18:00 +5°C° 0 mm 2 mps 734 mmHg 81%
    19:00 +5°C° 0 mm 2 mps 734 mmHg 84%
    20:00 +5°C° 0.1 mm 2 mps 735 mmHg 85%
    21:00 +5°C° 0.1 mm 2 mps 735 mmHg 87%
    22:00 +4°C° 0.1 mm 3 mps 735 mmHg 88%
    23:00 +4°C° 0 mm 3 mps 735 mmHg 89%

    Tomorrow, 14 December, Saturday

    Time Temperature Precipitation Wind Pressure Humidity
    00:00 +4°C° 0 mm 3 mps 735 mmHg 89%
    01:00 +3°C° 0 mm 4 mps 736 mmHg 90%
    02:00 +3°C° 0 mm 4 mps 736 mmHg 90%
    03:00 +3°C° 0 mm 4 mps 736 mmHg 90%
    04:00 +3°C° 0 mm 4 mps 736 mmHg 90%
    05:00 +3°C° 0.2 mm 4 mps 737 mmHg 90%
    06:00 +2°C° 0.2 mm 5 mps 738 mmHg 89%
    07:00 +2°C° 0.2 mm 5 mps 739 mmHg 89%
    08:00 +2°C° 0.2 mm 5 mps 740 mmHg 87%
    09:00 +3°C° 0.2 mm 5 mps 741 mmHg 85%
    10:00 +3°C° 0.2 mm 5 mps 741 mmHg 83%
    11:00 +4°C° 0.1 mm 4 mps 742 mmHg 81%
    12:00 +4°C° 0.1 mm 4 mps 742 mmHg 79%
    13:00 +5°C° 0.1 mm 3 mps 743 mmHg 77%
    14:00 +4°C° 0 mm 3 mps 744 mmHg 78%
    15:00 +5°C° 0 mm 2 mps 744 mmHg 79%
    16:00 +5°C° 0 mm 1 mps 745 mmHg 80%
    17:00 +4°C° 0 mm 2 mps 746 mmHg 80%
    18:00 +4°C° 0 mm 2 mps 747 mmHg 80%
    19:00 +3°C° 0 mm 3 mps 748 mmHg 80%
    20:00 +3°C° 0 mm 3 mps 748 mmHg 77%
    21:00 +3°C° 0 mm 3 mps 749 mmHg 75%
    22:00 +3°C° 0 mm 3 mps 750 mmHg 73%
    23:00 +3°C° 0 mm 3 mps 751 mmHg 77%

    Day after tomorrow, 15 December, Sunday

    Time Temperature Precipitation Wind Pressure Humidity
    00:00 +3°C° 0 mm 3 mps 751 mmHg 81%
    01:00 +2°C° 0 mm 3 mps 751 mmHg 84%
    02:00 +2°C° 0 mm 3 mps 752 mmHg 86%
    03:00 +3°C° 0 mm 2 mps 752 mmHg 87%
    04:00 +3°C° 0 mm 2 mps 752 mmHg 88%
    05:00 +2°C° 0 mm 2 mps 752 mmHg 89%
    06:00 +2°C° 0 mm 2 mps 752 mmHg 89%
    07:00 +2°C° 0 mm 2 mps 752 mmHg 90%
    08:00 +3°C° 0 mm 2 mps 752 mmHg 88%
    09:00 +3°C° 0 mm 3 mps 753 mmHg 85%
    10:00 +4°C° 0 mm 3 mps 753 mmHg 83%
    11:00 +5°C° 0 mm 3 mps 753 mmHg 79%
    12:00 +7°C° 0 mm 3 mps 753 mmHg 76%
    13:00 +8°C° 0 mm 3 mps 753 mmHg 73%
    14:00 +7°C° 0 mm 3 mps 754 mmHg 76%
    15:00 +6°C° 0 mm 2 mps 754 mmHg 79%
    16:00 +6°C° 0 mm 2 mps 754 mmHg 82%
    17:00 +6°C° 0 mm 2 mps 754 mmHg 83%
    18:00 +6°C° 0 mm 2 mps 754 mmHg 84%
    19:00 +6°C° 0 mm 1 mps 755 mmHg 84%
    20:00 +6°C° 0 mm 1 mps 755 mmHg 86%
    21:00 +6°C° 0 mm 1 mps 755 mmHg 87%
    22:00 +5°C° 0 mm 1 mps 756 mmHg 88%
    23:00 +5°C° 0 mm 1 mps 756 mmHg 89%

    16 December, Monday

    Time Temperature Precipitation Wind Pressure Humidity
    00:00 +4°C° 0 mm 1 mps 756 mmHg 91%
    01:00 +4°C° 0 mm 1 mps 756 mmHg 92%
    02:00 +4°C° 0 mm 1 mps 756 mmHg 92%
    03:00 +4°C° 0 mm 1 mps 756 mmHg 92%
    04:00 +4°C° 0 mm 1 mps 756 mmHg 92%
    05:00 +4°C° 0 mm 1 mps 756 mmHg 92%
    06:00 +4°C° 0 mm 1 mps 756 mmHg 92%
    07:00 +3°C° 0 mm 2 mps 756 mmHg 92%
    08:00 +4°C° 0 mm 2 mps 756 mmHg 88%
    09:00 +4°C° 0 mm 3 mps 756 mmHg 84%
    10:00 +5°C° 0 mm 3 mps 757 mmHg 81%
    11:00 +6°C° 0 mm 4 mps 756 mmHg 76%
    12:00 +7°C° 0 mm 4 mps 756 mmHg 71%
    13:00 +8°C° 0 mm 4 mps 756 mmHg 66%
    14:00 +8°C° 0 mm 4 mps 755 mmHg 70%
    15:00 +8°C° 0 mm 3 mps 755 mmHg 74%
    16:00 +7°C° 0 mm 3 mps 755 mmHg 78%
    17:00 +7°C° 0 mm 3 mps 755 mmHg 78%
    18:00 +7°C° 0 mm 3 mps 755 mmHg 79%
    19:00 +5°C° 0 mm 3 mps 755 mmHg 79%
    20:00 +5°C° 0 mm 3 mps 755 mmHg 77%
    21:00 +5°C° 0 mm 3 mps 755 mmHg 75%
    22:00 +5°C° 0 mm 4 mps 755 mmHg 73%
    23:00 +5°C° 0 mm 4 mps 755 mmHg 73%

    17 December, Tuesday

    Time Temperature Precipitation Wind Pressure Humidity
    00:00 +5°C° 0 mm 4 mps 754 mmHg 73%
    01:00 +5°C° 0 mm 4 mps 754 mmHg 73%
    02:00 +5°C° 0 mm 4 mps 754 mmHg 74%
    03:00 +5°C° 0 mm 4 mps 754 mmHg 76%
    04:00 +5°C° 0 mm 4 mps 754 mmHg 78%
    05:00 +5°C° 0 mm 4 mps 754 mmHg 80%
    06:00 +5°C° 0 mm 4 mps 754 mmHg 82%
    07:00 +6°C° 0 mm 4 mps 754 mmHg 85%
    08:00 +7°C° 0 mm 5 mps 754 mmHg 82%
    09:00 +8°C° 0 mm 5 mps 755 mmHg 79%
    10:00 +9°C° 0 mm 5 mps 755 mmHg 77%
    11:00 +10°C° 0 mm 6 mps 755 mmHg 73%
    12:00 +11°C° 0 mm 6 mps 754 mmHg 70%
    13:00 +14°C° 0 mm 7 mps 754 mmHg 66%
    14:00 +13°C° 0 mm 6 mps 754 mmHg 70%
    15:00 +11°C° 0 mm 6 mps 754 mmHg 73%
    16:00 +10°C° 0 mm 5 mps 754 mmHg 76%
    17:00 +10°C° 0 mm 5 mps 754 mmHg 78%
    18:00 +10°C° 0 mm 5 mps 754 mmHg 80%
    19:00 +9°C° 0 mm 5 mps 754 mmHg 82%
    20:00 +9°C° 0 mm 5 mps 755 mmHg 83%
    21:00 +9°C° 0 mm 5 mps 755 mmHg 84%
    22:00 +9°C° 0 mm 5 mps 755 mmHg 85%
    23:00 +9°C° 0 mm 5 mps 756 mmHg 85%

    18 December, Wednesday

    Time Temperature Precipitation Wind Pressure Humidity
    00:00 +10°C° 0 mm 4 mps 756 mmHg 86%
    01:00 +8°C° 0 mm 4 mps 756 mmHg 87%
    02:00 +8°C° 0 mm 4 mps 756 mmHg 88%
    03:00 +9°C° 0 mm 3 mps 756 mmHg 89%
    04:00 +9°C° 0 mm 3 mps 757 mmHg 90%
    05:00 +8°C° 0 mm 2 mps 757 mmHg 90%
    06:00 +8°C° 0 mm 2 mps 757 mmHg 91%
    07:00 +8°C° 0 mm 2 mps 758 mmHg 92%
    08:00 +8°C° 0 mm 2 mps 758 mmHg 89%
    09:00 +9°C° 0 mm 2 mps 759 mmHg 86%
    10:00 +10°C° 0 mm 2 mps 759 mmHg 83%
    11:00 +10°C° 0 mm 2 mps 760 mmHg 78%
    12:00 +12°C° 0 mm 2 mps 760 mmHg 72%
    13:00 +12°C° 0 mm 2 mps 760 mmHg 67%
    14:00 +10°C° 0 mm 2 mps 760 mmHg 71%
    15:00 +11°C° 0 mm 1 mps 760 mmHg 74%
    16:00 +10°C° 0 mm 1 mps 760 mmHg 78%
    17:00 +9°C° 0 mm 1 mps 760 mmHg 81%
    18:00 +9°C° 0 mm 1 mps 761 mmHg 84%
    19:00 +8°C° 0 mm 1 mps 761 mmHg 86%
    20:00 +8°C° 0 mm 1 mps 761 mmHg 88%
    21:00 +8°C° 0 mm 1 mps 761 mmHg 90%
    22:00 +7°C° 0 mm 1 mps 762 mmHg 92%
    23:00 +7°C° 0 mm 1 mps 762 mmHg 93%
    Show more